Preview of NWS' New Version of Forecast
This preview is not operational and should not be used for support decisions.

Regional Weather Roundup (RWR)

Issued by National Weather Service (NWS)

                            
000
ASUS44 KMEG 162200
RWRTN 
TENNESSEE HOURLY STATE WEATHER ROUNDUP
NATIONAL WEATHER SERVICE MEMPHIS TN
400 PM CST SAT FEB 16 2019

TNZ002-004-019-021-049-052-054-088>092-162300-
WEST TENNESSEE
  
CITY           SKY/WX    TMP DP  RH WIND       PRES   REMARKS
MEMPHIS INTL   PTSUNNY   41  32  70 NE8       29.85F                  
NWS MEMPHIS      N/A     38 N/A N/A MISG        N/A                   
JACKSON        CLOUDY    40  33  76 E6        29.89F                  
DYERSBURG      CLOUDY    35  30  82 E8        29.91F WCI  29          
$$

TNZ008-025-027-028-033-062-065-066-162300-
NORTH MIDDLE TENNESSEE
  
CITY           SKY/WX    TMP DP  RH WIND       PRES   REMARKS
NASHVILLE      CLOUDY    44  32  62 N6        29.90S                  
CLARKSVILLE    CLOUDY    38  30  73 E3        29.92S                  
SMYRNA         FAIR      42  35  76 NE6       29.91S                  
CROSSVILLE     CLOUDY    36  33  89 NE6       29.86R FOG     WCI  31  
$$

TNZ061-075-076-078-094-096-097-162300-
SOUTH MIDDLE TENNESSEE
  
CITY           SKY/WX    TMP DP  RH WIND       PRES   REMARKS
$$

TNZ017-018-042-046-047-162300-
NORTHEAST TENNESSEE
  
CITY           SKY/WX    TMP DP  RH WIND       PRES   REMARKS
TRI CITIES     CLOUDY    47  38  71 N3        29.85R                  
$$

TNZ012-013-036-069-073-074-162300-
CENTRAL EAST TENNESSEE
  
CITY           SKY/WX    TMP DP  RH WIND       PRES   REMARKS
KNOXVILLE      CLOUDY    46  40  79 N8        29.83R                  
OAK RIDGE        N/A     46  39  76 VRB3      29.88R                  
$$

TNZ083-085-099-162300-
SOUTHEAST TENNESSEE
  
CITY           SKY/WX    TMP DP  RH WIND       PRES   REMARKS
CHATTANOOGA    CLOUDY    50  40  68 NW3       29.85R                  
$$

SKY/WX REPORTED AS FAIR MEANS FEW OR NO CLOUDS BELOW
12 THOUSAND FEET.